[[{"header":{"parameterUnit":"m.s-1","parameterCategory":1,"la1":30.2991,"la2":30.254,"lo1":-89.0895,"lo2":-89.0444,"dy":0.0017,"dx":0.0017,"nx":28,"ny":28,"refTime":"2026-01-30T03:00:00:Z","depth":0,"parameterNumber":2,"parameterNumberName":"U-component_of_WINDS"},"data":[0,0,0,0,0,0,0,0,0,0,0,0,0,0,0,0,0,0,0,0,0,0,0,0,0,0,0,0,0,0,0,0,0,0,0,0,0,0,0,0,0,0,0,0,0,0,0,0,0,0,0,0,0,0,0,0,0,0,-0.6306,-0.6306,0,-0.6297,-0.6297,-0.6297,-0.6303,-0.6303,-0.6304,-0.6304,-0.6295,-0.6295,-0.6295,0,0,0,0,0,0,0,0,0,0,0,0,0,-0.6329,-0.6328,-0.6306,-0.6306,-0.6306,-0.6297,-0.6297,-0.6297,-0.6303,-0.6303,-0.6304,-0.6304,-0.6296,-0.6295,-0.6294,0,0,0,0,0,0,0,0,0,0,0,0,0,-0.6319,-0.6328,-0.6306,-0.6308,-0.6308,-0.6297,-0.6297,-0.6297,-0.6303,-0.6303,-0.6304,-0.6304,-0.6296,-0.6295,-0.6294,-0.6282,0,0,-0.6292,-0.6292,0,0,0,0,0,0,0,0,-0.632,-0.6318,-0.6308,-0.6308,-0.6308,-0.6301,-0.6302,-0.6292,-0.6303,-0.6305,-0.6304,-0.6304,-0.6297,-0.6296,-0.6294,-0.6281,-0.6281,-0.6292,-0.6292,-0.6291,-0.6291,0,0,0,0,0,0,0,-0.632,-0.6319,-0.6303,-0.6308,-0.6308,-0.6309,-0.6308,-0.63,-0.6299,-0.6305,-0.6305,-0.6304,-0.6297,-0.6294,-0.6294,-0.6281,-0.6292,-0.6291,-0.6291,-0.6291,-0.6255,-0.6254,0,0,0,0,0,0,-0.6321,-0.6319,-0.6303,-0.6302,-0.6315,-0.6308,-0.6307,-0.6303,-0.6299,-0.6299,-0.6303,-0.6304,-0.6295,-0.6294,-0.6293,-0.6276,-0.6291,-0.6291,-0.629,-0.6255,-0.6255,-0.6254,0,0,0,0,0,0,-0.6321,-0.6319,-0.6303,-0.6311,-0.6309,-0.6307,-0.6303,-0.6303,-0.63,-0.6298,-0.6298,-0.6301,-0.6296,-0.6294,-0.6284,-0.6276,-0.629,-0.629,-0.6256,-0.6255,-0.6254,-0.6243,0,0,0,0,0,0,-0.6322,-0.6319,-0.6315,-0.6311,-0.6308,-0.6294,-0.6302,-0.6302,-0.6298,-0.6299,-0.6295,-0.6295,-0.6296,-0.6285,-0.6283,-0.6275,-0.6289,-0.6256,-0.6255,-0.6254,-0.6244,-0.6242,-0.624,0,0,0,0,0,-0.6323,-0.6313,-0.6314,-0.6312,-0.6302,-0.6293,-0.6292,-0.6293,-0.6298,-0.6293,-0.6291,-0.6295,-0.6277,-0.6284,-0.6282,-0.6274,-0.6257,-0.6256,-0.6255,-0.6245,-0.6242,-0.624,0,0,0,0,0,0,-0.6317,-0.6312,-0.6314,-0.6303,-0.6298,-0.6294,-0.6288,-0.6291,-0.6285,-0.6286,-0.6288,-0.6287,-0.6275,-0.6274,-0.6281,-0.626,-0.6268,-0.6266,-0.6261,-0.6259,-0.6257,-0.6257,-0.6289,0,0,0,0,0,-0.6314,-0.6307,-0.6304,-0.6294,-0.6291,-0.629,-0.6286,-0.6287,-0.6283,-0.6281,-0.6279,-0.6275,-0.6268,-0.6263,-0.6257,-0.6244,-0.6242,-0.6237,-0.6235,-0.6234,-0.6232,-0.6223,-0.622,-0.625,-0.625,-0.625,0,0,-0.6309,-0.6305,-0.6301,-0.6292,-0.6289,-0.6281,-0.6288,-0.628,-0.6274,-0.628,-0.6269,-0.6267,-0.6263,-0.625,-0.6244,-0.6248,-0.6223,-0.6232,-0.6231,-0.623,-0.6221,-0.6218,-0.6216,-0.6249,-0.6249,-0.625,0,0,-0.6294,-0.6291,-0.6282,-0.6278,-0.6272,-0.6271,-0.6269,-0.6264,-0.6263,-0.6252,-0.6255,-0.6248,-0.6237,-0.6233,-0.6229,-0.6211,-0.6214,-0.6209,-0.6198,-0.6189,-0.6187,-0.6185,-0.6176,-0.6173,-0.6208,-0.6208,-0.6208,0,-0.6288,-0.6276,-0.6277,-0.6267,-0.6263,-0.6267,-0.6256,-0.6253,-0.6246,-0.6242,-0.6247,-0.6231,-0.6228,-0.6214,-0.6209,-0.6207,-0.6203,-0.6209,-0.6187,-0.6185,-0.6183,-0.6175,-0.6172,-0.6207,-0.6207,-0.6207,-0.6207,0,-0.6268,-0.6259,-0.6252,-0.6244,-0.6239,-0.6229,-0.6228,-0.6222,-0.6223,-0.6221,-0.6209,-0.6206,-0.6198,-0.6195,-0.6197,-0.618,-0.6182,-0.6187,-0.6195,-0.6179,-0.6172,-0.6169,-0.6206,-0.6206,-0.6206,-0.6207,0,0,-0.625,-0.6241,-0.6238,-0.6233,-0.6226,-0.622,-0.621,-0.6201,-0.6196,-0.6191,-0.6181,-0.6171,-0.6174,-0.617,-0.6171,-0.6163,-0.6146,-0.6169,-0.6169,-0.6163,-0.6125,-0.612,-0.6117,-0.6148,-0.6148,-0.6148,-0.6125,0,-0.6234,-0.6216,-0.6215,-0.6198,-0.6189,-0.6192,-0.6183,-0.6177,-0.6175,-0.6167,-0.6165,-0.6157,-0.6163,-0.616,-0.6153,-0.615,-0.6138,-0.6152,-0.6139,-0.6138,-0.6138,-0.6113,-0.6109,-0.6088,-0.6122,-0.6122,-0.6121,0,-0.6213,-0.6205,-0.6187,-0.6179,-0.6175,-0.6167,-0.6158,-0.6151,-0.6144,-0.6143,-0.6137,-0.6139,-0.6128,-0.6136,-0.612,-0.6129,-0.6124,-0.6121,-0.6121,-0.6118,-0.6128,-0.6109,-0.6081,-0.6077,-0.6117,-0.6118,-0.6118,0,-0.62,-0.6185,-0.6171,-0.6168,-0.6159,-0.6152,-0.6149,-0.6142,-0.6136,-0.6129,-0.6124,-0.6116,-0.6111,-0.6104,-0.6102,-0.6109,-0.6085,-0.6095,-0.6083,-0.6083,-0.6077,-0.6077,-0.6047,-0.6076,-0.6077,-0.6077,-0.6077,0,-0.6181,-0.6169,-0.6165,-0.6157,-0.6143,-0.6142,-0.6129,-0.6125,-0.6119,-0.6109,-0.6112,-0.6103,-0.6102,-0.6093,-0.6092,-0.6077,-0.6076,-0.6074,-0.6073,-0.6073,-0.6072,-0.6068,-0.6069,-0.6076,-0.6076,-0.6076,-0.6076,0,-0.6164,-0.6161,-0.6146,-0.6138,-0.6135,-0.6125,-0.6118,-0.611,-0.6107,-0.6095,-0.6092,-0.6088,-0.6077,-0.6075,-0.6062,-0.6061,-0.6043,-0.6045,-0.6045,-0.6045,-0.6032,-0.6033,-0.5997,-0.5991,-0.6026,-0.6026,-0.6026,0,-0.6152,-0.6142,-0.6132,-0.6126,-0.6121,-0.611,-0.6104,-0.6102,-0.6095,-0.6085,-0.6077,-0.6066,-0.6057,-0.6039,-0.6035,-0.6024,-0.6025,-0.6013,-0.6023,-0.6022,-0.6022,-0.6022,-0.602,-0.6011,-0.601,-0.601,-0.601,0,-0.6129,-0.6127,-0.6118,-0.6106,-0.6098,-0.6089,-0.6081,-0.6075,-0.6072,-0.6064,-0.6052,-0.6045,-0.603,-0.6018,-0.6008,-0.6003,-0.6005,-0.6006,-0.6003,-0.6001,-0.6,-0.5998,-0.6038,-0.6007,-0.6007,-0.6007,-0.6008,-0.6008,-0.6113,-0.6104,-0.6095,-0.6083,-0.6076,-0.6067,-0.6058,-0.6053,-0.6043,-0.603,-0.603,-0.6016,-0.6008,-0.5993,-0.5988,-0.5977,-0.5981,-0.5976,-0.5975,-0.5973,-0.597,-0.6003,-0.5975,-0.5975,-0.5975,-0.5976,-0.5976,0,-0.6089,-0.6083,-0.6072,-0.6059,-0.6049,-0.6051,-0.6042,-0.6033,-0.6021,-0.6012,-0.6002,-0.5987,-0.5975,-0.5969,-0.5957,-0.5949,-0.5949,-0.5945,-0.5945,-0.5944,-0.5969,-0.5972,-0.5945,-0.5945,-0.5945,-0.5945,-0.5945,-0.5945,-0.6076,-0.6059,-0.6056,-0.6036,-0.603,-0.6015,-0.6009,-0.6001,-0.5994,-0.5976,-0.5965,-0.5961,-0.5953,-0.594,-0.5929,-0.5927,-0.5922,-0.5917,-0.5916,-0.5939,-0.5942,-0.5945,-0.5948,-0.5916,-0.5916,-0.5891,-0.5891,-0.5891]},{"header":{"parameterUnit":"m.s-1","parameterCategory":1,"la1":30.2991,"la2":30.254,"lo1":-89.0895,"lo2":-89.0444,"dy":0.0017,"dx":0.0017,"nx":28,"ny":28,"refTime":"2026-01-30T03:00:00:Z","depth":0,"parameterNumber":3,"parameterNumberName":"V-component_of_WINDS"},"data":[0,0,0,0,0,0,0,0,0,0,0,0,0,0,0,0,0,0,0,0,0,0,0,0,0,0,0,0,0,0,0,0,0,0,0,0,0,0,0,0,0,0,0,0,0,0,0,0,0,0,0,0,0,0,0,0,0,0,-0.3711,-0.3711,0,-0.3773,-0.3774,-0.3775,-0.3872,-0.3873,-0.3875,-0.3877,-0.394,-0.394,-0.394,0,0,0,0,0,0,0,0,0,0,0,0,0,-0.3673,-0.3673,-0.3711,-0.3711,-0.3712,-0.3773,-0.3774,-0.3775,-0.3871,-0.3873,-0.3876,-0.3878,-0.394,-0.394,-0.394,0,0,0,0,0,0,0,0,0,0,0,0,0,-0.3708,-0.3673,-0.371,-0.3768,-0.3773,-0.3773,-0.3774,-0.3775,-0.3871,-0.3873,-0.3876,-0.3879,-0.394,-0.394,-0.394,-0.3888,0,0,-0.394,-0.394,0,0,0,0,0,0,0,0,-0.3706,-0.3709,-0.3759,-0.3764,-0.377,-0.3817,-0.3784,-0.3813,-0.387,-0.3834,-0.3877,-0.388,-0.3897,-0.39,-0.3906,-0.3891,-0.3893,-0.394,-0.394,-0.394,-0.394,0,0,0,0,0,0,0,-0.3703,-0.3707,-0.3735,-0.3759,-0.3766,-0.379,-0.3797,-0.379,-0.385,-0.3837,-0.3844,-0.3851,-0.39,-0.3906,-0.3909,-0.3894,-0.394,-0.394,-0.394,-0.394,-0.3838,-0.3835,0,0,0,0,0,0,-0.3692,-0.3704,-0.3733,-0.3737,-0.3744,-0.3788,-0.3797,-0.3799,-0.385,-0.386,-0.3848,-0.3855,-0.3905,-0.3908,-0.3911,-0.3852,-0.394,-0.394,-0.394,-0.384,-0.3837,-0.3834,0,0,0,0,0,0,-0.3691,-0.3694,-0.3731,-0.3723,-0.3729,-0.3786,-0.3788,-0.3799,-0.3805,-0.3859,-0.387,-0.3843,-0.3907,-0.3911,-0.3893,-0.3856,-0.394,-0.394,-0.3844,-0.3839,-0.3835,-0.3735,0,0,0,0,0,0,-0.369,-0.3693,-0.3674,-0.3722,-0.3729,-0.3711,-0.3786,-0.3799,-0.3805,-0.3814,-0.3857,-0.3866,-0.3909,-0.3892,-0.3893,-0.3858,-0.394,-0.3847,-0.3842,-0.3837,-0.3742,-0.3728,-0.3716,0,0,0,0,0,-0.3688,-0.3644,-0.3673,-0.3676,-0.3707,-0.3709,-0.3713,-0.3764,-0.3802,-0.3783,-0.3817,-0.3865,-0.386,-0.3889,-0.3891,-0.3855,-0.385,-0.3843,-0.3837,-0.3748,-0.3731,-0.3716,0,0,0,0,0,0,-0.3591,-0.3651,-0.3684,-0.3654,-0.3675,-0.3725,-0.3703,-0.3745,-0.3756,-0.3764,-0.3827,-0.3835,-0.3808,-0.3831,-0.3862,-0.3807,-0.3862,-0.3856,-0.3793,-0.3778,-0.3765,-0.376,-0.394,0,0,0,0,0,-0.3566,-0.3563,-0.3616,-0.3584,-0.3593,-0.3646,-0.3649,-0.3686,-0.3711,-0.3721,-0.3754,-0.3775,-0.3779,-0.378,-0.3786,-0.3746,-0.3756,-0.3722,-0.3709,-0.3698,-0.3692,-0.367,-0.3656,-0.3813,-0.3814,-0.3814,0,0,-0.3514,-0.3547,-0.3541,-0.3565,-0.3586,-0.3581,-0.3653,-0.3645,-0.3641,-0.3719,-0.3704,-0.3728,-0.3757,-0.3726,-0.3715,-0.3744,-0.365,-0.369,-0.3681,-0.3681,-0.3663,-0.3648,-0.3634,-0.3809,-0.381,-0.3811,0,0,-0.3417,-0.3442,-0.3417,-0.3437,-0.3468,-0.3504,-0.3497,-0.3541,-0.356,-0.3546,-0.3604,-0.36,-0.3605,-0.3623,-0.3632,-0.354,-0.3584,-0.3541,-0.3473,-0.3451,-0.3439,-0.3428,-0.3394,-0.3381,-0.3534,-0.3534,-0.3534,0,-0.3348,-0.3343,-0.3399,-0.3387,-0.3395,-0.3466,-0.3441,-0.3457,-0.3488,-0.3492,-0.3524,-0.3531,-0.3555,-0.3529,-0.3507,-0.3513,-0.3507,-0.3536,-0.3436,-0.3426,-0.3417,-0.3385,-0.3372,-0.3528,-0.3529,-0.353,-0.353,0,-0.3257,-0.3252,-0.3229,-0.3257,-0.3263,-0.3244,-0.3296,-0.3295,-0.3332,-0.3363,-0.3346,-0.3378,-0.3391,-0.3388,-0.3424,-0.3367,-0.3384,-0.3425,-0.3481,-0.3395,-0.3366,-0.3354,-0.352,-0.3522,-0.3524,-0.3525,0,0,-0.31,-0.3159,-0.3149,-0.3162,-0.3201,-0.3199,-0.3183,-0.3196,-0.3193,-0.3212,-0.3199,-0.3201,-0.3239,-0.325,-0.3288,-0.327,-0.3193,-0.3314,-0.3315,-0.3289,-0.313,-0.3097,-0.3082,-0.3222,-0.322,-0.3219,-0.3127,0,-0.3009,-0.2986,-0.3035,-0.2999,-0.2995,-0.3061,-0.3047,-0.3069,-0.3098,-0.3098,-0.313,-0.313,-0.3181,-0.3188,-0.3172,-0.3205,-0.3161,-0.3213,-0.321,-0.3209,-0.3199,-0.3067,-0.3033,-0.2945,-0.3116,-0.3114,-0.3113,0,-0.2901,-0.2914,-0.2877,-0.2918,-0.2918,-0.2904,-0.2919,-0.2919,-0.2945,-0.2967,-0.2978,-0.3023,-0.3009,-0.3064,-0.3045,-0.3079,-0.308,-0.3096,-0.3094,-0.3095,-0.3155,-0.3063,-0.2919,-0.2904,-0.3096,-0.3097,-0.3098,0,-0.2788,-0.2797,-0.2776,-0.2785,-0.2832,-0.2821,-0.2839,-0.2868,-0.2872,-0.2885,-0.2888,-0.2899,-0.2905,-0.2912,-0.2959,-0.2995,-0.2933,-0.2993,-0.295,-0.2949,-0.2933,-0.2933,-0.2786,-0.2936,-0.2937,-0.2937,-0.2937,0,-0.2681,-0.2656,-0.2726,-0.2712,-0.2685,-0.2742,-0.2714,-0.2739,-0.2764,-0.2756,-0.2815,-0.2806,-0.2868,-0.2866,-0.2902,-0.2879,-0.2882,-0.2899,-0.2908,-0.2893,-0.289,-0.2894,-0.2901,-0.2933,-0.2934,-0.2935,-0.2935,0,-0.255,-0.2596,-0.2577,-0.2623,-0.2634,-0.2612,-0.265,-0.264,-0.2672,-0.2661,-0.2662,-0.2713,-0.2713,-0.276,-0.277,-0.2795,-0.2756,-0.2778,-0.2747,-0.2754,-0.2708,-0.2711,-0.2556,-0.2538,-0.2701,-0.27,-0.2698,0,-0.2479,-0.246,-0.2504,-0.2503,-0.2519,-0.2517,-0.2521,-0.2576,-0.2578,-0.2605,-0.2591,-0.2596,-0.2603,-0.26,-0.2637,-0.2645,-0.2666,-0.2611,-0.2668,-0.2652,-0.2663,-0.2663,-0.2661,-0.2599,-0.2597,-0.2595,-0.2594,0,-0.2346,-0.2369,-0.2373,-0.2385,-0.2388,-0.24,-0.2416,-0.2412,-0.2472,-0.2471,-0.2472,-0.2477,-0.2487,-0.249,-0.2505,-0.2524,-0.2568,-0.2576,-0.2566,-0.2549,-0.2532,-0.2539,-0.2713,-0.2579,-0.258,-0.2582,-0.2582,-0.2583,-0.2241,-0.2228,-0.2256,-0.2258,-0.2276,-0.2288,-0.228,-0.2311,-0.2313,-0.2326,-0.2358,-0.2353,-0.2378,-0.2402,-0.2417,-0.2413,-0.2441,-0.2427,-0.2423,-0.2419,-0.2409,-0.2533,-0.2416,-0.2417,-0.2417,-0.2417,-0.2418,0,-0.211,-0.2131,-0.2133,-0.2153,-0.2154,-0.2196,-0.2215,-0.2213,-0.2209,-0.2229,-0.2234,-0.2234,-0.2238,-0.2275,-0.2283,-0.2272,-0.2293,-0.2272,-0.2273,-0.2276,-0.2385,-0.2392,-0.2256,-0.2256,-0.2256,-0.2256,-0.2256,-0.2256,-0.2042,-0.2021,-0.2047,-0.2035,-0.2056,-0.2052,-0.2059,-0.207,-0.2087,-0.2084,-0.2087,-0.2112,-0.2138,-0.2148,-0.2153,-0.2164,-0.2163,-0.2135,-0.2153,-0.2253,-0.2269,-0.2284,-0.229,-0.2135,-0.2135,-0.2044,-0.2043,-0.2043]}]]